When you browse on this site, cookies collect data to enhance your experience and personalize the content and advertising you see.
Visit our Privacy Policy to learn more. By continuing to use the site, you agree to this use of cookies and data.
EN

Hourly Weather Veliko Tarnovo

Today, 7 July, Tuesday

Time Temperature Precipitation Wind Pressure Humidity
00:00 +23°C° 0.4 mm 1 mps 731 mmHg 79%
01:00 +23°C° 0.4 mm 1 mps 731 mmHg 82%
02:00 +21°C° 0 mm 2 mps 731 mmHg 88%
03:00 +21°C° 0.4 mm 2 mps 731 mmHg 89%
04:00 +21°C° 0.4 mm 1 mps 731 mmHg 90%
05:00 +21°C° 0.4 mm 1 mps 730 mmHg 91%
06:00 +23°C° 0 mm 1 mps 731 mmHg 86%
07:00 +24°C° 0 mm 1 mps 731 mmHg 81%
08:00 +26°C° 0 mm 1 mps 731 mmHg 75%
09:00 +27°C° 0.4 mm 2 mps 731 mmHg 72%
10:00 +28°C° 0.4 mm 3 mps 731 mmHg 69%
11:00 +29°C° 0.4 mm 4 mps 731 mmHg 65%
12:00 +28°C° 1.7 mm 5 mps 731 mmHg 69%
13:00 +27°C° 1.7 mm 6 mps 732 mmHg 72%
14:00 +26°C° 1.7 mm 6 mps 732 mmHg 76%
15:00 +24°C° 0.1 mm 7 mps 732 mmHg 72%
16:00 +24°C° 0.1 mm 7 mps 732 mmHg 69%
17:00 +24°C° 0.1 mm 7 mps 732 mmHg 66%
18:00 +23°C° 0.1 mm 7 mps 733 mmHg 67%
19:00 +21°C° 0.1 mm 7 mps 733 mmHg 68%
20:00 +19°C° 0.1 mm 6 mps 734 mmHg 69%
21:00 +19°C° 0 mm 6 mps 734 mmHg 70%
22:00 +17°C° 0 mm 6 mps 735 mmHg 70%
23:00 +16°C° 0 mm 6 mps 735 mmHg 71%

Tomorrow, 8 July, Wednesday

Time Temperature Precipitation Wind Pressure Humidity
00:00 +16°C° 0 mm 5 mps 736 mmHg 72%
01:00 +15°C° 0 mm 4 mps 736 mmHg 74%
02:00 +15°C° 0 mm 4 mps 737 mmHg 76%
03:00 +14°C° 0 mm 3 mps 737 mmHg 77%
04:00 +14°C° 0 mm 3 mps 737 mmHg 79%
05:00 +14°C° 0 mm 2 mps 738 mmHg 81%
06:00 +15°C° 0 mm 2 mps 738 mmHg 79%
07:00 +16°C° 0 mm 2 mps 739 mmHg 78%
08:00 +17°C° 0 mm 2 mps 739 mmHg 76%
09:00 +18°C° 0 mm 2 mps 740 mmHg 73%
10:00 +19°C° 0 mm 2 mps 740 mmHg 69%
11:00 +20°C° 0 mm 2 mps 740 mmHg 66%
12:00 +21°C° 0 mm 2 mps 740 mmHg 64%
13:00 +23°C° 0 mm 1 mps 740 mmHg 62%
14:00 +24°C° 0 mm 1 mps 740 mmHg 60%
15:00 +24°C° 0 mm 1 mps 740 mmHg 60%
16:00 +24°C° 0 mm 1 mps 739 mmHg 60%
17:00 +24°C° 0 mm 1 mps 739 mmHg 60%
18:00 +23°C° 0 mm 1 mps 740 mmHg 66%
19:00 +21°C° 0 mm 1 mps 740 mmHg 72%
20:00 +20°C° 0 mm 1 mps 740 mmHg 78%
21:00 +19°C° 0 mm 1 mps 740 mmHg 80%
22:00 +18°C° 0 mm 1 mps 740 mmHg 83%
23:00 +18°C° 0 mm 1 mps 741 mmHg 85%

Day after tomorrow, 9 July, Thursday

Time Temperature Precipitation Wind Pressure Humidity
00:00 +16°C° 0 mm 1 mps 741 mmHg 85%
01:00 +16°C° 0 mm 1 mps 741 mmHg 86%
02:00 +16°C° 0 mm 1 mps 741 mmHg 87%
03:00 +15°C° 0 mm 1 mps 741 mmHg 87%
04:00 +15°C° 0 mm 1 mps 741 mmHg 87%
05:00 +15°C° 0 mm 1 mps 741 mmHg 87%
06:00 +18°C° 0 mm 1 mps 741 mmHg 79%
07:00 +18°C° 0 mm 0 mps 741 mmHg 72%
08:00 +20°C° 0 mm 0 mps 742 mmHg 64%
09:00 +24°C° 0 mm 1 mps 742 mmHg 57%
10:00 +25°C° 0 mm 1 mps 742 mmHg 50%
11:00 +26°C° 0 mm 2 mps 742 mmHg 43%
12:00 +27°C° 0 mm 2 mps 742 mmHg 42%
13:00 +28°C° 0 mm 2 mps 741 mmHg 41%
14:00 +28°C° 0 mm 2 mps 741 mmHg 39%
15:00 +28°C° 0 mm 2 mps 741 mmHg 41%
16:00 +28°C° 0 mm 2 mps 741 mmHg 43%
17:00 +28°C° 0 mm 2 mps 740 mmHg 45%
18:00 +26°C° 0 mm 1 mps 740 mmHg 51%
19:00 +24°C° 0 mm 1 mps 740 mmHg 57%
20:00 +21°C° 0 mm 1 mps 741 mmHg 63%
21:00 +21°C° 0 mm 1 mps 741 mmHg 65%
22:00 +20°C° 0 mm 1 mps 741 mmHg 68%
23:00 +19°C° 0 mm 1 mps 741 mmHg 70%

10 July, Friday

Time Temperature Precipitation Wind Pressure Humidity
00:00 +19°C° 0 mm 1 mps 741 mmHg 72%
01:00 +19°C° 0 mm 1 mps 741 mmHg 73%
02:00 +18°C° 0 mm 1 mps 741 mmHg 74%
03:00 +18°C° 0 mm 1 mps 741 mmHg 74%
04:00 +18°C° 0 mm 1 mps 741 mmHg 74%
05:00 +18°C° 0 mm 1 mps 741 mmHg 74%
06:00 +20°C° 0 mm 1 mps 741 mmHg 70%
07:00 +22°C° 0 mm 1 mps 741 mmHg 65%
08:00 +24°C° 0 mm 1 mps 742 mmHg 61%
09:00 +25°C° 0 mm 2 mps 741 mmHg 57%
10:00 +27°C° 0 mm 2 mps 741 mmHg 54%
11:00 +28°C° 0 mm 3 mps 741 mmHg 51%
12:00 +28°C° 0 mm 3 mps 741 mmHg 49%
13:00 +29°C° 0 mm 3 mps 741 mmHg 48%
14:00 +29°C° 0 mm 4 mps 740 mmHg 47%
15:00 +29°C° 0 mm 3 mps 740 mmHg 48%
16:00 +28°C° 0 mm 3 mps 740 mmHg 50%
17:00 +28°C° 0 mm 3 mps 740 mmHg 52%
18:00 +26°C° 0 mm 3 mps 740 mmHg 59%
19:00 +24°C° 0 mm 2 mps 740 mmHg 65%
20:00 +23°C° 0 mm 2 mps 740 mmHg 72%
21:00 +21°C° 0 mm 2 mps 740 mmHg 73%
22:00 +20°C° 0 mm 2 mps 741 mmHg 75%
23:00 +19°C° 0 mm 2 mps 741 mmHg 77%

11 July, Saturday

Time Temperature Precipitation Wind Pressure Humidity
00:00 +18°C° 0 mm 2 mps 741 mmHg 79%
01:00 +18°C° 0 mm 2 mps 740 mmHg 82%
02:00 +18°C° 0 mm 1 mps 740 mmHg 84%
03:00 +18°C° 0 mm 1 mps 740 mmHg 86%
04:00 +16°C° 0 mm 1 mps 740 mmHg 87%
05:00 +16°C° 0 mm 1 mps 740 mmHg 89%
06:00 +19°C° 0 mm 1 mps 740 mmHg 83%
07:00 +21°C° 0 mm 1 mps 740 mmHg 76%
08:00 +23°C° 0 mm 2 mps 740 mmHg 69%
09:00 +25°C° 0 mm 2 mps 740 mmHg 65%
10:00 +26°C° 0 mm 2 mps 740 mmHg 60%
11:00 +28°C° 0 mm 3 mps 740 mmHg 56%
12:00 +28°C° 0 mm 3 mps 740 mmHg 54%
13:00 +29°C° 0 mm 3 mps 739 mmHg 53%
14:00 +30°C° 0 mm 3 mps 739 mmHg 51%
15:00 +30°C° 0 mm 3 mps 739 mmHg 52%
16:00 +29°C° 0 mm 3 mps 739 mmHg 53%
17:00 +29°C° 0 mm 3 mps 738 mmHg 54%
18:00 +27°C° 0 mm 2 mps 738 mmHg 59%
19:00 +25°C° 0 mm 2 mps 738 mmHg 64%
20:00 +24°C° 0 mm 2 mps 738 mmHg 69%
21:00 +23°C° 0 mm 2 mps 739 mmHg 72%
22:00 +22°C° 0 mm 1 mps 739 mmHg 75%
23:00 +21°C° 0 mm 1 mps 739 mmHg 78%

12 July, Sunday

Time Temperature Precipitation Wind Pressure Humidity
00:00 +21°C° 0 mm 1 mps 739 mmHg 80%
01:00 +20°C° 0 mm 1 mps 739 mmHg 82%
02:00 +20°C° 0 mm 1 mps 738 mmHg 84%
03:00 +19°C° 0 mm 1 mps 738 mmHg 85%
04:00 +19°C° 0 mm 1 mps 738 mmHg 86%
05:00 +17°C° 0 mm 0 mps 738 mmHg 86%
06:00 +21°C° 0 mm 1 mps 738 mmHg 79%
07:00 +23°C° 0 mm 1 mps 738 mmHg 73%
08:00 +25°C° 0 mm 1 mps 739 mmHg 66%
09:00 +26°C° 0 mm 1 mps 739 mmHg 61%
10:00 +27°C° 0 mm 1 mps 738 mmHg 55%
11:00 +28°C° 0 mm 2 mps 738 mmHg 50%
12:00 +29°C° 0 mm 2 mps 738 mmHg 48%
13:00 +30°C° 0 mm 2 mps 738 mmHg 45%
14:00 +31°C° 0 mm 2 mps 737 mmHg 43%
15:00 +30°C° 0 mm 2 mps 737 mmHg 45%
16:00 +30°C° 0 mm 2 mps 737 mmHg 47%
17:00 +30°C° 0 mm 2 mps 737 mmHg 49%
18:00 +28°C° 0 mm 2 mps 737 mmHg 55%
19:00 +27°C° 0 mm 2 mps 737 mmHg 61%
20:00 +25°C° 0 mm 2 mps 737 mmHg 67%
21:00 +24°C° 0.1 mm 3 mps 737 mmHg 71%
22:00 +22°C° 0.1 mm 3 mps 738 mmHg 75%
23:00 +21°C° 0.1 mm 4 mps 738 mmHg 79%
Show more